Location: Central Coast
(33.3208°S, 151.2336°E)
Time: 20:43:49
(UTC+11:00)

Vanguard 3 - Visible Passes

Search period start: 19 February 2018 00:00
Search period end: 01 March 2018 00:00
Orbit: 508 x 3264 km, 33.3° (Epoch: 18 February)

Date Brightness Start Highest point End Pass type
(mag) Time Alt. Az. Time Alt. Az. Time Alt. Az.
19 Feb 10.3 02:05:52 36° NE 02:05:52 36° NE 02:20:43 10° E visible
19 Feb 9.9 04:10:25 39° NW 04:19:04 73° NNE 04:39:05 10° ESE visible
20 Feb 10.9 00:55:59 17° ENE 00:55:59 17° ENE 01:01:00 10° E visible
20 Feb 9.7 03:00:32 55° N 03:02:43 57° NNE 03:21:55 10° ESE visible
20 Feb 10.1 05:05:06 22° WNW 05:19:16 86° NNE 05:39:06 10° E visible
21 Feb 10.2 01:50:39 37° ENE 01:50:39 37° ENE 02:03:54 10° ESE visible
21 Feb 9.7 03:55:12 46° NW 04:02:08 76° NNE 04:22:22 10° ESE visible
21 Feb 10.2 06:01:01 10° W 06:19:55 90° S 06:38:54 10° E visible
22 Feb 10.9 00:40:44 16° E 00:40:44 16° E 00:44:35 10° E visible
22 Feb 9.6 02:45:18 61° NNE 02:45:51 61° NNE 03:05:00 10° ESE visible
22 Feb 10.0 04:49:51 26° WNW 05:02:21 88° N 05:22:34 10° E visible
23 Feb 10.2 01:35:23 36° ENE 01:35:23 36° ENE 01:46:59 10° ESE visible
23 Feb 9.5 03:39:57 54° NW 03:45:18 80° NNE 04:05:35 10° E visible
23 Feb 10.2 05:44:47 10° W 06:03:00 90° SW 06:22:33 10° E visible
24 Feb 11.0 00:25:29 14° E 00:25:29 14° E 00:28:01 10° E visible
24 Feb 9.5 02:30:02 64° NE 02:30:02 64° NE 02:48:01 10° ESE visible
24 Feb 9.9 04:34:36 30° W 04:45:30 89° N 05:05:57 10° E visible
25 Feb 10.3 01:20:09 34° E 01:20:09 34° E 01:30:00 10° ESE visible
25 Feb 9.4 03:24:42 62° WNW 03:28:34 83° NNE 03:48:40 10° E visible
25 Feb 10.1 05:29:16 12° W 05:46:06 89° N 06:06:05 10° E visible
26 Feb 11.0 00:10:16 12° E 00:10:16 12° E 00:11:20 10° E visible
26 Feb 9.5 02:14:50 63° ENE 02:14:50 63° ENE 02:30:57 10° ESE visible
26 Feb 9.8 04:19:24 34° W 04:28:44 90° S 04:49:13 10° E visible
27 Feb 10.4 01:05:00 30° E 01:05:00 30° E 01:12:58 10° ESE visible
27 Feb 9.3 03:09:33 71° WNW 03:11:57 85° NNE 03:31:43 10° E visible
27 Feb 10.0 05:14:07 15° W 05:29:14 88° N 05:49:30 10° ENE visible
28 Feb 9.6 01:59:43 57° E 01:59:43 57° E 02:13:52 10° ESE visible
28 Feb 9.7 04:04:18 40° W 04:12:03 90° S 04:32:25 10° E visible
28 Feb 10.2 06:11:49 10° WSW 06:29:35 77° NNW 06:49:05 10° ENE visible
